SL-12 R/B(2)

基本信息
目录编号:
32278
目录名称:
SL-12 R/B(2)
国际标识:
2007-052D
轨道中心:
EARTH
物体状态:
在轨
发射日期:
2007-10-26 UTC
国别:
俄罗斯(独联体) (CIS)
轨道信息
数据来源: 国际轨道数据
星历时间: 2026-07-09T21:16:37+0800
半长轴: 25484.774km
偏心率: 0.0018727
轨道倾角: 65.553°
近地点辐角: 195.060°
升交点赤经: 314.538°
平近点角: 154.856°
近地点: 19058.911km
远地点: 19154.363km
周期: 674.809分钟
每日圈数: 2.133937
详细信息
发射场:
TTMTR
轨道高度:
MEO
数据来源:
AOE Integration Group
参考系:
TEME
时间系统:
UTC
历元类型:
SGP4
2D轨道图
3D轨道图
轨道高度分析图
轨道倾角分析图
轨道综合分析图
查看轨道综合分析图